EW7349 Weather Reports


time (UTC)temp
F
wind
direction
speed
knots
gust
knots
rain 1hr
in
rain 24hr
in
rain mn
in
humidity
%
barometer
mb
20260504202359 78 155 1.7 5.2 0.00 0.00 0.00 35 1010.0
20260504201851 79 321 1.7 7.8 0.00 0.00 0.00 32 1010.0
20260504201347 80 152 2.6 7.8 0.00 0.00 0.00 33 1009.9
20260504200841 80 230 2.6 7.8 0.00 0.00 0.00 30 1009.9
20260504200557 79 117 2.6 7.8 0.00 0.00 0.00 30 1009.8
20260504195828 80 171 2.6 7.8 0.00 0.00 0.00 31 1010.1
20260504195322 80 273 1.7 7.8 0.00 0.00 0.00 30 1010.0
20260504194816 80 146 1.7 7.8 0.00 0.00 0.00 29 1010.1
20260504194311 79 190 2.6 7.8 0.00 0.00 0.00 32 1010.2
20260504193804 78 288 2.6 7.8 0.00 0.00 0.00 31 1010.2
20260504193259 78 171 2.6 7.8 0.00 0.00 0.00 30 1010.3
20260504192752 78 169 2.6 9.6 0.00 0.00 0.00 29 1010.5
20260504192246 79 280 1.7 9.6 0.00 0.00 0.00 33 1010.4
20260504191741 79 345 1.7 5.2 0.00 0.00 0.00 29 1010.5
20260504191236 80 273 1.7 6.1 0.00 0.00 0.00 30 1010.6
20260504190951 79 273 1.7 8.7 0.00 0.00 0.00 29 1010.7
20260504190446 78 279 2.6 9.6 0.00 0.00 0.00 29 1010.8
20260504185934 79 19 2.6 9.6 0.00 0.00 0.00 29 1010.9
20260504185435 78 292 1.7 9.6 0.00 0.00 0.00 29 1011.0
20260504184704 78 175 2.6 9.6 0.00 0.00 0.00 29 1011.1
20260504184158 79 239 1.7 6.1 0.00 0.00 0.00 34 1011.1
20260504183652 77 295 2.6 11.3 0.00 0.00 0.00 31 1011.3
20260504183147 77 249 3.5 13.0 0.00 0.00 0.00 30 1011.4
20260504182640 77 289 3.5 7.8 0.00 0.00 0.00 29 1011.5
20260504182136 78 251 2.6 7.8 0.00 0.00 0.00 30 1011.7
20260504181629 78 145 2.6 7.0 0.00 0.00 0.00 30 1011.6
20260504181122 78 97 2.6 7.0 0.00 0.00 0.00 31 1011.7
20260504180616 78 252 2.6 6.1 0.00 0.00 0.00 30 1011.7
20260504180111 78 213 2.6 8.7 0.00 0.00 0.00 29 1011.7
20260504175606 76 318 2.6 9.6 0.00 0.00 0.00 32 1011.8
20260504175058 77 175 2.6 9.6 0.00 0.00 0.00 31 1011.8
20260504174552 77 129 2.6 7.8 0.00 0.00 0.00 30 1012.0
20260504174047 76 282 2.6 7.8 0.00 0.00 0.00 31 1012.1
20260504173540 77 242 2.6 7.0 0.00 0.00 0.00 34 1012.3
20260504173034 76 287 2.6 7.0 0.00 0.00 0.00 30 1012.3
20260504172529 74 277 2.6 7.0 0.00 0.00 0.00 32 1012.1
20260504172030 75 245 1.7 6.1 0.00 0.00 0.00 32 1012.3
20260504171753 75 37 2.6 7.0 0.00 0.00 0.00 33 1012.5
20260504171028 75 242 2.6 8.7 0.00 0.00 0.00 35 1012.4
20260504170529 76 336 1.7 9.6 0.00 0.00 0.00 32 1012.5
20260504151019 68 220 1.7 10.4 0.00 0.00 0.00 38 1014.0
20260504150520 67 259 1.7 5.2 0.00 0.00 0.00 40 1013.9
20260504141015 61 250 0.9 5.2 0.00 0.00 0.00 49 1014.2
20260504140512 60 26 1.7 5.2 0.00 0.00 0.00 51 1014.2
20260504130442 53 265 0.9 5.2 0.00 0.00 0.00 62 1014.7
20260504110353 49 242 0.0 1.7 0.00 0.00 0.00 67 1015.0
20260504100240 49 254 0.9 4.3 0.00 0.00 0.00 69 1014.8
20260504090129 49 238 0.0 0.9 0.00 0.00 0.00 68 1015.1
20260504081753 50 205 0.0 0.9 0.00 0.00 0.00 66 1015.3
20260504081250 50 239 0.0 0.0 0.00 0.00 0.00 66 1015.2
20260504080523 50 239 0.0 0.0 0.00 0.00 0.00 66 1015.2
20260504070411 50 147 0.0 0.9 0.00 0.00 0.00 63 1015.0
20260504070132 50 147 0.0 0.9 0.00 0.00 0.00 63 1015.0
20260504050341 49 117 0.0 0.0 0.00 0.00 0.00 69 1015.4
20260504045605 49 117 0.0 0.0 0.00 0.00 0.00 69 1015.4
20260504044836 48 117 0.0 0.0 0.00 0.00 0.00 69 1015.4
20260504044337 48 117 0.0 0.0 0.00 0.00 0.00 69 1015.4
20260504043835 48 117 0.0 0.0 0.00 0.00 0.00 69 1015.4
20260504043336 48 117 0.0 0.0 0.00 0.00 0.00 70 1015.3
20260504042835 48 117 0.0 0.0 0.00 0.00 0.00 69 1015.4
20260504042335 48 117 0.0 0.0 0.00 0.00 0.00 69 1015.3
20260504041833 48 117 0.0 0.0 0.00 0.00 0.00 69 1015.4
20260504041332 48 117 0.0 0.0 0.00 0.00 0.00 69 1015.2
20260504040834 48 117 0.0 0.0 0.00 0.00 0.00 68 1015.2
20260504040332 48 117 0.0 0.0 0.00 0.00 0.00 68 1015.3
20260504035832 48 117 0.0 0.0 0.00 0.00 0.00 67 1015.3
20260504035333 48 117 0.0 0.9 0.00 0.00 0.00 67 1015.3
20260504034831 48 117 0.0 0.9 0.00 0.00 0.00 67 1015.3
20260504034328 48 117 0.0 0.9 0.00 0.00 0.00 66 1015.5
20260504034054 48 117 0.0 0.0 0.00 0.00 0.00 66 1015.4
20260504033330 48 117 0.0 0.0 0.00 0.00 0.00 65 1015.4
20260504033043 48 117 0.0 0.0 0.00 0.00 0.00 65 1015.3
20260504032927 48 117 0.0 0.0 0.00 0.00 0.00 65 1015.4
20260504031829 48 117 0.0 0.0 0.00 0.00 0.00 65 1015.3
20260504031325 49 117 0.0 0.0 0.00 0.00 0.00 64 1015.4
20260504030824 49 117 0.0 0.0 0.00 0.00 0.00 63 1015.4
20260504030325 49 117 0.0 0.0 0.00 0.00 0.00 63 1015.3
20260504025824 49 117 0.0 0.0 0.00 0.00 0.00 63 1015.3
20260504025325 49 117 0.0 0.0 0.00 0.00 0.00 62 1015.3
20260504024825 49 117 0.0 0.0 0.00 0.00 0.00 61 1015.3
20260504024817 49 117 0.0 0.0 0.00 0.00 0.00 60 1015.3
20260504023824 49 117 0.0 0.0 0.00 0.00 0.00 60 1015.2
20260504023325 49 117 0.0 0.0 0.00 0.00 0.00 60 1015.3
20260504023049 50 117 0.0 0.0 0.00 0.00 0.00 60 1015.2
20260504022321 50 117 0.0 0.9 0.00 0.00 0.00 60 1015.2
20260504021821 50 117 0.0 0.9 0.00 0.00 0.00 60 1015.2
20260504021319 50 117 0.0 0.0 0.00 0.00 0.00 58 1015.2
20260504020821 50 117 0.0 0.0 0.00 0.00 0.00 58 1015.2
20260504020319 51 117 0.0 0.0 0.00 0.00 0.00 57 1015.2
20260504015820 51 117 0.0 0.0 0.00 0.00 0.00 56 1015.1
20260504015319 51 117 0.0 0.0 0.00 0.00 0.00 56 1015.0
20260504014821 51 117 0.0 0.0 0.00 0.00 0.00 56 1015.0
20260504014320 51 117 0.0 0.0 0.00 0.00 0.00 55 1015.1
20260504013818 52 117 0.0 0.0 0.00 0.00 0.00 55 1015.0
20260504013318 52 117 0.0 0.0 0.00 0.00 0.00 55 1015.0
20260504012819 52 117 0.0 0.0 0.00 0.00 0.00 54 1014.9
20260504012317 53 117 0.0 0.0 0.00 0.00 0.00 53 1014.8
20260504012047 53 117 0.0 0.0 0.00 0.00 0.00 53 1014.8
20260504011317 53 117 0.0 0.0 0.00 0.00 0.00 53 1014.7
20260504010815 54 117 0.0 0.0 0.00 0.00 0.00 52 1014.7
20260504010315 54 117 0.0 0.0 0.00 0.00 0.00 50 1014.6
20260504005809 54 117 0.0 0.0 0.00 0.00 0.00 49 1014.6
20260504005309 55 117 0.0 0.0 0.00 0.00 0.00 48 1014.5
20260504005038 55 117 0.0 0.0 0.00 0.00 0.00 48 1014.5
20260504004308 56 117 0.0 0.0 0.00 0.00 0.00 48 1014.5
20260504003807 56 117 0.0 0.0 0.00 0.00 0.00 47 1014.4
20260504003524 56 117 0.0 0.0 0.00 0.00 0.00 46 1014.4
20260504002801 57 117 0.0 0.0 0.00 0.00 0.00 46 1014.4
20260504002303 57 117 0.0 0.0 0.00 0.00 0.00 46 1014.4
20260504001755 58 117 0.0 0.0 0.00 0.00 0.00 45 1014.4
20260504001248 58 117 0.0 0.0 0.00 0.00 0.00 42 1014.5
20260504000742 59 117 0.0 0.0 0.00 0.00 0.00 41 1014.4
20260504000547 59 117 0.0 0.0 0.00 0.00 0.00 40 1014.4
20260504000457 60 117 0.0 0.0 0.00 0.00 0.00 40 1014.4
20260503235425 61 117 0.0 0.0 0.00 0.00 0.00 39 1014.2
20260503235312 60 117 0.0 0.0 0.00 0.00 0.00 40 1014.3
20260503234213 61 117 0.0 0.0 0.00 0.00 0.00 39 1014.1
20260503233926 61 117 0.0 0.9 0.00 0.00 0.00 38 1014.2
20260503233200 62 117 0.0 1.7 0.00 0.00 0.00 38 1014.2
20260503232653 62 117 0.0 1.7 0.00 0.00 0.00 38 1014.2
20260503232147 62 322 0.0 0.0 0.00 0.00 0.00 39 1014.1
20260503231640 62 322 0.0 0.9 0.00 0.00 0.00 39 1014.0
20260503231352 63 322 0.0 0.9 0.00 0.00 0.00 35 1014.0
20260503230628 63 258 0.0 0.9 0.00 0.00 0.00 35 1014.0
20260503230122 63 258 0.0 1.7 0.00 0.00 0.00 34 1014.0
20260503225615 63 252 0.0 1.7 0.00 0.00 0.00 33 1013.9
20260503225111 63 254 0.9 2.6 0.00 0.00 0.00 31 1014.0
20260503224603 62 228 0.9 4.3 0.00 0.00 0.00 29 1014.0
20260503224058 62 335 0.9 4.3 0.00 0.00 0.00 29 1014.1
20260503223814 63 38 0.9 3.5 0.00 0.00 0.00 29 1014.0
20260503223051 63 0 0.9 3.5 0.00 0.00 0.00 28 1014.1
20260503222541 64 24 0.9 5.2 0.00 0.00 0.00 29 1014.0
20260503222034 64 229 1.7 5.2 0.00 0.00 0.00 28 1014.1
20260503221753 64 205 1.7 4.3 0.00 0.00 0.00 29 1014.1
20260503221022 63 55 0.9 6.1 0.00 0.00 0.00 28 1014.1
20260503220516 63 256 0.9 6.1 0.00 0.00 0.00 28 1014.2
20260503220235 63 267 0.9 3.5 0.00 0.00 0.00 28 1014.2
20260503215505 63 346 1.7 6.1 0.00 0.00 0.00 30 1014.1
20260503215215 63 69 1.7 6.1 0.00 0.00 0.00 30 1014.2
20260503214452 63 145 1.7 5.2 0.00 0.00 0.00 29 1014.2
20260503213947 63 92 0.9 3.5 0.00 0.00 0.00 28 1014.2
20260503213443 63 244 1.7 3.5 0.00 0.00 0.00 29 1014.1
20260503212944 63 63 1.7 3.5 0.00 0.00 0.00 27 1014.2
20260503212444 64 346 1.7 4.3 0.00 0.00 0.00 29 1014.3
20260503211943 64 279 1.7 7.0 0.00 0.00 0.00 29 1014.2
20260503211441 63 244 2.6 11.3 0.00 0.00 0.00 29 1014.3
20260503210941 63 294 2.6 11.3 0.00 0.00 0.00 28 1014.3
20260503210703 63 217 2.6 9.6 0.00 0.00 0.00 29 1014.3
20260503205941 64 295 1.7 6.1 0.00 0.00 0.00 28 1014.4
20260503205443 64 215 1.7 6.1 0.00 0.00 0.00 30 1014.3
20260503204942 64 230 1.7 6.1 0.00 0.00 0.00 29 1014.3
20260503204441 64 72 0.9 4.3 0.00 0.00 0.00 31 1014.4
20260503204206 64 113 1.7 5.2 0.00 0.00 0.00 30 1014.4
20260503203441 64 43 1.7 7.8 0.00 0.00 0.00 30 1014.5
20260503202943 64 22 2.6 7.8 0.00 0.00 0.00 29 1014.6